User: anonymous   Login
Location: Brno
(49.2000°N, 16.6330°E)
Time: 03:50:36
(UTC+02:00)
Language:

Cosmos 1459 Rocket - Orbit

View from above orbital plane
View from above orbital plane
View from above satellite
View from above satellite

Ground track
Ground track

The orbit data is extracted from the following two-line orbital elements,

1 14059U 83042B   17291.44120513 +.00000097 +00000-0 +81015-4 0  9991
2 14059 082.9716 330.4524 0041211 280.9433 078.7090 13.78598585732476
Epoch (UTC): 18 October 2017 10:35:20
Eccentricity: 0.0041211
inclination: 82.9716°
perigee height: 938 km
apogee height: 999 km
right ascension of ascending node: 330.4524°
argument of perigee: 280.9433°
revolutions per day: 13.78598585
mean anomaly at epoch: 78.7090°
orbit number at epoch: 73247

The dashed part of the orbit path shows where the satellite is in the earth's shadow,  

DLR